Regional Weather Roundup
Issued by NWS

Home | Current Version | Previous Version | Text Only | Print | Product List | Glossary Off
Versions: 1 2 3 4 5 6 7 8 9 10 11 12 13 14 15 16 17 18 19 20 21 22 23 24 25 26 27 28 29 30 31 32 33 34 35 36 37 38 39 40 41 42 43 44 45 46 47 48 49 50

000
ASUS43 KDMX 221806
RWRIA

WEATHER ROUNDUP FOR IOWA
NATIONAL WEATHER SERVICE DES MOINES IA
100 PM CDT WED MAR 22 2017

NOTE: "FAIR" INDICATES FEW OR NO CLOUDS BELOW 12,000 FEET WITH NO
SIGNIFICANT WEATHER AND/OR OBSTRUCTIONS TO VISIBILITY.

* - THESE STATIONS ARE NOT NWS STATIONS...THUS NOT UNDER NWS
QUALITY CONTROL.  THEY ALSO DO NOT REPORT WEATHER SUCH
AS PRECIPITATION OR FOG.

IAZ001>003-012>014-020>022-031>034-043>046-221900-
   NORTHWEST IOWA

CITY           SKY/WX    TMP DP  RH WIND       PRES   REMARKS
CARROLL *      CLOUDY    36  25  64 SE14      30.43F WCI  27
CHEROKEE *     CLOUDY    34  22  62 SE9       30.41F WCI  27
DENISON *      CLOUDY    36  25  64 SE12      30.38F WCI  27
LE MARS *      CLOUDY    36  19  51 SE13G20   30.37F WCI  27
ORANGE CITY *  PTSUNNY   34  21  60 SE10G17   30.36F WCI  26
SHELDON *      CLOUDY    32  23  69 SE16      30.38F WCI  21
SIOUX CITY     CLOUDY    36  22  56 SE14      30.38F WCI  27
6HR MIN TEMP:  30; 6HR MAX TEMP:  36;

SPENCER        CLOUDY    34  23  64 S17G25    30.42F WCI  23
6HR MIN TEMP:  24; 6HR MAX TEMP:  34;

STORM LAKE *   CLOUDY    32  23  69 SE16      30.41F WCI  21
$$

IAZ055>058-069>071-079>083-090>094-221900-
   SOUTHWEST IOWA

CITY           SKY/WX    TMP DP  RH WIND       PRES   REMARKS
ATLANTIC *     CLOUDY    39  25  56 SE12      30.41F WCI  32
AUDUBON *      CLOUDY    37  27  65 SE10      30.42F WCI  30
CLARINDA *     CLOUDY    43  28  56 SE9G17    30.41F
COUNCIL BLFS * SUNNY     45  23  42 SE16      30.35F
CRESTON *      CLOUDY    39  27  60 SE13      30.42F WCI  32
HARLAN  *      CLOUDY    39  27  60 SE13      30.42F WCI  32
LAMONI         CLOUDY    41  27  57 E9        30.42S
6HR MIN TEMP:  31; 6HR MAX TEMP:  41;

RED OAK *      CLOUDY    45  27  49 E14       30.38F
SHENANDOAH *   CLOUDY    45  25  45 E12G20    30.38F
$$

IAZ047>049-059>061-072>074-084-221900-
   CENTRAL IOWA

CITY           SKY/WX    TMP DP  RH WIND       PRES   REMARKS
AMES           CLOUDY    40  23  50 SE15      30.47S WCI  32
6HR MIN TEMP:  26; 6HR MAX TEMP:  40;

ANKENY *       CLOUDY    39  25  56 SE12G21   30.48F WCI  32
BOONE *        CLOUDY    39  21  48 SE17      30.45F WCI  30
CHARITON *     CLOUDY    43  25  49 E15G21    30.44F
DES MOINES     CLOUDY    41  25  53 SE12      30.47S
6HR MIN TEMP:  30; 6HR MAX TEMP:  41;

GRINNELL*      SUNNY     41  21  45 SE14G20   30.49F
MARSHALLTOWN   PTSUNNY   39  21  48 E13       30.48F WCI  31
6HR MIN TEMP:  25; 6HR MAX TEMP:  40;

NEWTON *       CLOUDY    39  21  48 SE14G21   30.46F WCI  31
PELLA *        MOSUNNY   41  26  55 E12G18    30.49F
PERRY *        CLOUDY    37  22  55 SE12      30.45F WCI  30
$$

IAZ004>006-015-016-023>025-035-036-221900-
   NORTH CENTRAL IOWA

CITY           SKY/WX    TMP DP  RH WIND       PRES   REMARKS
ALGONA *       CLOUDY    34  23  64 SE14      30.46F WCI  24
CLARION *      CLOUDY    36  21  55 SE16G24   30.47F WCI  26
ESTHERVILLE    CLOUDY    31  22  69 SE17      30.44F WCI  19
6HR MIN TEMP:  21; 6HR MAX TEMP:  32;

FORT DODGE *   CLOUDY    36  21  55 SE10      30.47S WCI  28
MASON CITY     MOSUNNY   36  19  50 SE12      30.49F WCI  28
6HR MIN TEMP:  21; 6HR MAX TEMP:  36;

FOREST CITY *  CLOUDY    34  21  60 SE14G20   30.48F WCI  24
WEBSTER CITY * CLOUDY    39  23  52 SE15      30.44F WCI  31
IOWA FALLS *   CLOUDY    39  22  51 SE13      30.48F WCI  32
$$

IAZ007>011-017>019-026>030-037>042-050>054-066-221900-
   NORTHEAST IOWA

CITY           SKY/WX    TMP DP  RH WIND       PRES   REMARKS
CEDAR RAPIDS   SUNNY     38  17  42 E8        30.50F WCI  32
6HR MIN TEMP:  26; 6HR MAX TEMP:  39;

CHARLES CITY * SUNNY     37  16  41 SE14G21   30.51F WCI  29
CLINTON *      SUNNY     37  16  42 SE10G17   30.55F WCI  30
DECORAH *      SUNNY     34   9  35 SE8G16    30.51F WCI  27
DUBUQUE        SUNNY     34  11  38 E8        30.54F WCI  27
6HR MIN TEMP:  22; 6HR MAX TEMP:  34;

MONTICELLO *   SUNNY     37  14  38 E14       30.52F WCI  29
OELWEIN *      SUNNY     36  16  44 SE14G21   30.52F WCI  27
WATERLOO       SUNNY     38  17  42 SE10G17   30.51F WCI  31
$$

IAZ064-065-067-068-078-221900-
   EAST CENTRAL IOWA

CITY           SKY/WX    TMP DP  RH WIND       PRES   REMARKS
DAVENPORT      SUNNY     39  16  39 E13       30.54F WCI  31
6HR MIN TEMP:  28; 6HR MAX TEMP:  39;

IOWA CITY      SUNNY     41  18  39 SE12G20   30.53F
6HR MIN TEMP:  30; 6HR MAX TEMP:  41;

MUSCATINE *    SUNNY     41  18  38 SE14      30.53F
QUAD CITIES    SUNNY     41  18  39 E15G25    30.53F
6HR MIN TEMP:  27; 6HR MAX TEMP:  41;

$$

IAZ062-063-075>077-085>089-095>099-221900-
   SOUTHEAST IOWA

CITY           SKY/WX    TMP DP  RH WIND       PRES   REMARKS
BURLINGTON     SUNNY     42  23  46 E13       30.50F
6HR MIN TEMP:  28; 6HR MAX TEMP:  42;

FAIRFIELD *    SUNNY     41  21  45 E14       30.48F
FORT MADISON * SUNNY     45  25  45 E10       30.50F
KEOKUK *       SUNNY     41  21  45 E13G21    30.49F
OSKALOOSA *      N/A     41  25  52 SE16      30.49F
CENTERVILLE *    N/A     45  25  45 SE10      30.46F
OTTUMWA        SUNNY     42  24  49 SE12      30.47F
6HR MIN TEMP:  28; 6HR MAX TEMP:  43;

WASHINGTON *   SUNNY     41  19  42 SE14G24   30.51F
$$

ABBREVIATIONS USED IN REMARKS
   TC - TEMPERATURES IN CELSIUS
  WCI - WIND CHILL INDEX
   HX - HEAT INDEX
  VSB - VISIBILITY
$$





USA.gov is the U.S. government's official web portal to all federal, state and local government web resources and services.